Hourly Weather Dziekowizna

Today, 6 May, Thursday

Time Temperature Precipitation Wind Pressure Humidity
00:00 +4°C° 0 mm 7 mps 734 mmHg 91%
01:00 +4°C° 0 mm 6 mps 735 mmHg 91%
02:00 +3°C° 0 mm 6 mps 736 mmHg 90%
03:00 +3°C° 0 mm 7 mps 736 mmHg 89%
04:00 +1°C° 0 mm 8 mps 737 mmHg 89%
05:00 +2°C° 0 mm 8 mps 737 mmHg 85%
06:00 +2°C° 0 mm 8 mps 738 mmHg 82%
07:00 +2°C° 0 mm 8 mps 739 mmHg 78%
08:00 +5°C° 0 mm 8 mps 739 mmHg 67%
09:00 +6°C° 0 mm 9 mps 739 mmHg 57%
10:00 +7°C° 0 mm 10 mps 740 mmHg 46%
11:00 +8°C° 0 mm 9 mps 740 mmHg 45%
12:00 +10°C° 0 mm 9 mps 740 mmHg 44%
13:00 +10°C° 0 mm 8 mps 740 mmHg 43%
14:00 +11°C° 0 mm 8 mps 740 mmHg 46%
15:00 +11°C° 0 mm 7 mps 739 mmHg 49%
16:00 +11°C° 0 mm 6 mps 739 mmHg 51%
17:00 +10°C° 0 mm 5 mps 739 mmHg 56%
18:00 +9°C° 0 mm 5 mps 739 mmHg 61%
19:00 +7°C° 0 mm 5 mps 739 mmHg 66%
20:00 +7°C° 0.1 mm 5 mps 739 mmHg 71%
21:00 +7°C° 0.1 mm 5 mps 739 mmHg 75%
22:00 +5°C° 0.1 mm 6 mps 739 mmHg 79%
23:00 +5°C° 0.5 mm 6 mps 738 mmHg 83%

Tomorrow, 7 May, Friday

Time Temperature Precipitation Wind Pressure Humidity
00:00 +5°C° 0.5 mm 6 mps 738 mmHg 86%
01:00 +5°C° 0.5 mm 6 mps 738 mmHg 90%
02:00 +5°C° 0.1 mm 6 mps 738 mmHg 90%
03:00 +5°C° 0.1 mm 6 mps 737 mmHg 90%
04:00 +6°C° 0.1 mm 5 mps 737 mmHg 91%
05:00 +6°C° 0.2 mm 5 mps 737 mmHg 91%
06:00 +6°C° 0.2 mm 5 mps 738 mmHg 91%
07:00 +6°C° 0.2 mm 4 mps 738 mmHg 91%
08:00 +6°C° 0.2 mm 4 mps 738 mmHg 91%
09:00 +6°C° 0.2 mm 4 mps 739 mmHg 90%
10:00 +6°C° 0.2 mm 4 mps 739 mmHg 89%
11:00 +7°C° 0.2 mm 4 mps 740 mmHg 84%
12:00 +7°C° 0.2 mm 4 mps 740 mmHg 78%
13:00 +8°C° 0.2 mm 5 mps 740 mmHg 72%
14:00 +8°C° 0.2 mm 5 mps 741 mmHg 69%
15:00 +9°C° 0.2 mm 5 mps 741 mmHg 65%
16:00 +9°C° 0.2 mm 5 mps 742 mmHg 62%
17:00 +8°C° 0 mm 4 mps 742 mmHg 65%
18:00 +6°C° 0 mm 4 mps 742 mmHg 69%
19:00 +5°C° 0 mm 3 mps 743 mmHg 73%
20:00 +4°C° 0 mm 3 mps 743 mmHg 75%
21:00 +4°C° 0 mm 3 mps 744 mmHg 78%
22:00 +3°C° 0 mm 3 mps 744 mmHg 81%
23:00 +2°C° 0 mm 3 mps 744 mmHg 83%

Day after tomorrow, 8 May, Saturday

Time Temperature Precipitation Wind Pressure Humidity
00:00 +2°C° 0 mm 3 mps 745 mmHg 85%
01:00 +2°C° 0 mm 3 mps 745 mmHg 87%
02:00 +2°C° 0 mm 3 mps 745 mmHg 88%
03:00 +2°C° 0 mm 3 mps 745 mmHg 89%
04:00 +2°C° 0 mm 3 mps 744 mmHg 90%
05:00 +3°C° 0 mm 3 mps 744 mmHg 86%
06:00 +5°C° 0 mm 4 mps 744 mmHg 82%
07:00 +6°C° 0 mm 4 mps 744 mmHg 78%
08:00 +7°C° 0 mm 5 mps 744 mmHg 76%
09:00 +8°C° 0 mm 5 mps 744 mmHg 74%
10:00 +8°C° 0 mm 5 mps 743 mmHg 73%
11:00 +8°C° 0.1 mm 5 mps 743 mmHg 78%
12:00 +7°C° 0.1 mm 5 mps 742 mmHg 82%
13:00 +7°C° 0.1 mm 4 mps 742 mmHg 87%
14:00 +8°C° 0 mm 4 mps 741 mmHg 86%
15:00 +10°C° 0 mm 4 mps 741 mmHg 84%
16:00 +11°C° 0 mm 4 mps 740 mmHg 83%
17:00 +11°C° 0 mm 4 mps 740 mmHg 85%
18:00 +12°C° 0 mm 3 mps 739 mmHg 87%
19:00 +12°C° 0 mm 3 mps 739 mmHg 89%
20:00 +12°C° 0 mm 3 mps 739 mmHg 90%
21:00 +12°C° 0 mm 3 mps 738 mmHg 91%
22:00 +12°C° 0 mm 4 mps 738 mmHg 92%
23:00 +11°C° 0 mm 4 mps 738 mmHg 93%

9 May, Sunday

Time Temperature Precipitation Wind Pressure Humidity
00:00 +11°C° 0 mm 4 mps 738 mmHg 93%
01:00 +11°C° 0 mm 4 mps 738 mmHg 93%

10 May, Monday

Time Temperature Precipitation Wind Pressure Humidity

11 May, Tuesday

Time Temperature Precipitation Wind Pressure Humidity
Show more

We Need Your Consent

Meteoprog and our Service Providers may store and access personal data such as cookies, device identifiers or other similar technologies on your device and process such data to personalise content and ads, as well as provide social media features and to analyse the traffic.

  • Store and/or access information on your device

    Cookies, device identifiers or other information can be stored or accessed on your device for the purposes indicated above.

  • Personalised ads and content, ad and content measurement, audience insights, and products development

    Ads and content can be personalised based on a profile. More data can be added to better personalise ads and content. Ad and content performance can be measured. Insights about the audience who saw the ads and content can be derived. Such data can be used to develop or improve user’s experience, systems and software.

By clicking ‘I Agree’ you will allow the use of indicated cookies, device identifiers, web beacons or other similar technologies. Your settings can be changed in the browser on your device.

For certain purposes, legitimate interests may be relied on, rather than consent. You can read more about this in our Privacy and Cookie Policy.